Americus, GA

12:56 AM EDT on August 20, 2017 (GMT -0400)
Souther

Weather History for KACJ - July, 2013

Change the Weather History Date:

Saturday, July 13, 2013

  Actual Average (KABY) Record (KABY)
Temperature  
Mean Temperature 76 °F -  
Max Temperature 82 °F 89 °F 104 °F (1980)
Min Temperature 69 °F 70 °F 63 °F (1963)
Cooling Degree Days 10    
Growing Degree Days 26 (Base 50)    
Moisture  
Dew Point 71 °F    
Average Humidity 93    
Maximum Humidity 100    
Minimum Humidity 66    
Precipitation  
Precipitation 0.00 in - - ()
Sea Level Pressure  
Sea Level Pressure 29.99 in    
Wind  
Wind Speed 4 mph (East)    
Max Wind Speed 16 mph    
Max Gust Speed 26 mph    
Visibility 8 miles    
Events Fog , Rain , Thunderstorm    
Averages and records for this station are not official NWS values.
T = Trace of Precipitation, MM = Missing Value Source: NWS Daily Summary

Daily Weather History Graph

Daily Weather History Graph

Search for Another Location

Airport or City:

Trip Planner

Search our weather history database for the weather conditions in past years. The results will help you decide how hot, cold, wet, or windy it might be!

Date:

Astronomy

Jul. 13, 2013 Rise Set
Actual Time 6:40 AM EDT 8:44 PM EDT
Civil Twilight 6:12 AM EDT 9:12 PM EDT
Nautical Twilight 5:38 AM EDT 9:46 PM EDT
Astronomical Twilight 5:02 AM EDT 10:22 PM EDT
Moon 11:34 AM EDT (7/13) 11:48 PM EDT (7/13)
Length of Visible Light 15h 00m
Length of Day
14h 04m
Waxing Crescent, 25% of the Moon is Illuminated
Jul 13
Waxing Crescent
Jul 15
First Quarter
Jul 22
Full
Jul 29
Last Quarter
Aug 6
New

Hourly Weather History & Observations

Time (EDT) Temp. Heat Index Dew Point Humidity Pressure Visibility Wind Dir Wind Speed Gust Speed Precip Events Conditions
12:15 AM 71.6 °F - 71.6 °F 100% 29.94 in 10.0 mi North 6.9 mph - N/A   Clear
12:35 AM 71.6 °F - 71.6 °F 100% 29.95 in 10.0 mi NNW 3.5 mph - N/A   Clear
12:55 AM 71.6 °F - 71.6 °F 100% 29.95 in 10.0 mi NE 3.5 mph - N/A   Clear
1:15 AM 71.6 °F - 71.6 °F 100% 29.95 in 10.0 mi Calm Calm - N/A   Clear
1:35 AM 71.6 °F - 71.6 °F 100% 29.96 in 7.0 mi Calm Calm - N/A   Clear
1:55 AM 69.8 °F - 69.8 °F 100% 29.96 in 7.0 mi Calm Calm - N/A   Clear
2:15 AM 71.6 °F - 71.6 °F 100% 29.97 in 10.0 mi Calm Calm - N/A   Scattered Clouds
2:35 AM 71.6 °F - 71.6 °F 100% 29.97 in 10.0 mi Calm Calm - N/A   Mostly Cloudy
2:55 AM 71.6 °F - 69.8 °F 94% 29.95 in 10.0 mi Calm Calm - N/A   Mostly Cloudy
3:15 AM 69.8 °F - 69.8 °F 100% 29.92 in 10.0 mi WSW 4.6 mph - N/A   Mostly Cloudy
3:35 AM 69.8 °F - 69.8 °F 100% 29.92 in 7.0 mi WSW 3.5 mph - N/A   Scattered Clouds
3:55 AM 69.8 °F - 69.8 °F 100% 29.93 in 7.0 mi Calm Calm - N/A   Scattered Clouds
4:15 AM 69.8 °F - 69.8 °F 100% 29.93 in 5.0 mi SE 3.5 mph - N/A   Overcast
4:35 AM 69.8 °F - 69.8 °F 100% 29.92 in 5.0 mi Calm Calm - N/A   Overcast
4:55 AM 69.8 °F - 69.8 °F 100% 29.93 in 5.0 mi Calm Calm - N/A   Overcast
5:15 AM 69.8 °F - 69.8 °F 100% 29.94 in 5.0 mi NNE 3.5 mph - N/A   Overcast
5:35 AM 69.8 °F - 69.8 °F 100% 29.94 in 7.0 mi NNE 5.8 mph - N/A   Overcast
5:55 AM 69.8 °F - 69.8 °F 100% 29.95 in 5.0 mi NNE 3.5 mph - N/A   Overcast
6:15 AM 69.8 °F - 69.8 °F 100% 29.95 in 3.0 mi ENE 3.5 mph - N/A   Overcast
6:35 AM 69.8 °F - 69.8 °F 100% 29.95 in 1.0 mi East 4.6 mph - N/A   Overcast
6:55 AM 69.8 °F - 69.8 °F 100% 29.95 in 0.5 mi Calm Calm - N/A Fog Fog
7:15 AM 69.8 °F - 69.8 °F 100% 29.96 in 1.0 mi East 3.5 mph - N/A   Overcast
7:35 AM 69.8 °F - 69.8 °F 100% 29.97 in 1.5 mi ENE 4.6 mph - N/A   Overcast
7:55 AM 69.8 °F - 69.8 °F 100% 29.97 in 1.2 mi NE 6.9 mph - N/A   Overcast
8:15 AM 71.6 °F - 71.6 °F 100% 29.97 in 2.0 mi ENE 4.6 mph - N/A   Overcast
8:35 AM 71.6 °F - 71.6 °F 100% 29.99 in 4.0 mi ENE 4.6 mph - N/A   Overcast
8:55 AM 71.6 °F - 71.6 °F 100% 30.00 in 5.0 mi East 5.8 mph - N/A   Overcast
9:15 AM 73.4 °F - 71.6 °F 94% 30.01 in 10.0 mi East 5.8 mph - N/A   Overcast
9:35 AM 73.4 °F - 71.6 °F 94% 30.01 in 10.0 mi East 8.1 mph - N/A   Overcast
9:55 AM 77.0 °F - 71.6 °F 83% 30.01 in 10.0 mi East 8.1 mph - N/A   Overcast
10:15 AM 77.0 °F - 71.6 °F 83% 30.01 in 10.0 mi East 6.9 mph - N/A   Mostly Cloudy
10:35 AM 77.0 °F - 69.8 °F 78% 30.01 in 10.0 mi SE 6.9 mph - N/A   Overcast
10:55 AM 77.0 °F - 69.8 °F 78% 30.02 in 10.0 mi ESE 8.1 mph - N/A   Overcast
11:15 AM 77.0 °F - 69.8 °F 78% 30.02 in 10.0 mi SE 5.8 mph - N/A   Overcast
11:35 AM 77.0 °F - 71.6 °F 83% 30.02 in 10.0 mi ESE 5.8 mph - N/A   Overcast
11:55 AM 78.8 °F - 71.6 °F 78% 30.02 in 10.0 mi SE 5.8 mph - N/A   Overcast
12:15 PM 78.8 °F - 71.6 °F 78% 30.03 in 10.0 mi East 6.9 mph - N/A   Overcast
12:35 PM 78.8 °F - 69.8 °F 74% 30.03 in 10.0 mi ESE 5.8 mph - N/A   Mostly Cloudy
12:55 PM 80.6 °F 83.9 °F 69.8 °F 70% 30.02 in 10.0 mi SE 8.1 mph - N/A   Mostly Cloudy
1:15 PM 80.6 °F 83.9 °F 69.8 °F 70% 30.02 in 10.0 mi East 5.8 mph - N/A   Mostly Cloudy
1:35 PM 80.6 °F 84.6 °F 71.6 °F 74% 30.02 in 10.0 mi ESE 6.9 mph - N/A   Mostly Cloudy
1:55 PM 82.4 °F 86.3 °F 69.8 °F 66% 30.01 in 10.0 mi SE 3.5 mph - N/A   Scattered Clouds
2:15 PM 82.4 °F 86.3 °F 69.8 °F 66% 30.00 in 10.0 mi SSE 4.6 mph - N/A   Scattered Clouds
2:35 PM 80.6 °F 84.6 °F 71.6 °F 74% 30.00 in 10.0 mi SE 4.6 mph - N/A   Mostly Cloudy
2:55 PM 82.4 °F 87.2 °F 71.6 °F 70% 29.99 in 10.0 mi East 6.9 mph - N/A   Mostly Cloudy
3:15 PM 82.4 °F 87.2 °F 71.6 °F 70% 29.99 in 10.0 mi ESE 6.9 mph - N/A   Mostly Cloudy
3:35 PM 80.6 °F 84.6 °F 71.6 °F 74% 30.00 in 10.0 mi ESE 16.1 mph 26.5 mph N/A Thunderstorm Thunderstorm
3:55 PM 69.8 °F - 69.8 °F 100% 30.00 in 1.5 mi Calm Calm - N/A Rain , Thunderstorm Heavy Thunderstorms and Rain
4:15 PM 71.6 °F - 71.6 °F 100% 29.99 in 7.0 mi Calm Calm - N/A Rain Light Rain
4:35 PM 71.6 °F - 71.6 °F 100% 30.00 in 5.0 mi Calm Calm - N/A Rain Light Rain
4:55 PM 73.4 °F - 71.6 °F 94% 30.00 in 10.0 mi Calm Calm - N/A   Mostly Cloudy
5:15 PM 73.4 °F - 73.4 °F 100% 30.00 in 10.0 mi Calm Calm - N/A   Scattered Clouds
5:35 PM 75.2 °F - 73.4 °F 94% 30.01 in 10.0 mi North 3.5 mph - N/A Rain Rain
5:55 PM 73.4 °F - 71.6 °F 94% 30.01 in 10.0 mi NNE 5.8 mph - N/A Rain Light Rain
6:15 PM 73.4 °F - 73.4 °F 100% 30.02 in 7.0 mi South 3.5 mph - N/A Rain Rain
6:35 PM 73.4 °F - 73.4 °F 100% 30.01 in 5.0 mi Calm Calm - N/A Rain Rain
6:55 PM 73.4 °F - 71.6 °F 94% 30.02 in 3.0 mi Calm Calm - N/A Rain Rain
7:15 PM 73.4 °F - 73.4 °F 100% 30.02 in 7.0 mi NE 8.1 mph - N/A Rain Rain
7:35 PM 71.6 °F - 71.6 °F 100% 30.02 in 10.0 mi NE 9.2 mph - N/A Rain Light Rain
7:55 PM 71.6 °F - 71.6 °F 100% 30.02 in 10.0 mi NE 6.9 mph - N/A   Overcast
8:15 PM 71.6 °F - 71.6 °F 100% 30.01 in 10.0 mi NE 3.5 mph - N/A   Light Drizzle
8:35 PM 71.6 °F - 71.6 °F 100% 30.02 in 10.0 mi NE 5.8 mph - N/A   Overcast
8:55 PM 71.6 °F - 71.6 °F 100% 30.01 in 10.0 mi ENE 4.6 mph - N/A   Overcast
9:15 PM 71.6 °F - 71.6 °F 100% 30.01 in 10.0 mi ENE 4.6 mph - N/A   Mostly Cloudy
9:35 PM 71.6 °F - 71.6 °F 100% 30.02 in 10.0 mi ENE 4.6 mph - N/A Rain Light Rain
9:55 PM 71.6 °F - 71.6 °F 100% 30.02 in 10.0 mi ENE 4.6 mph - N/A   Overcast
10:15 PM 71.6 °F - 71.6 °F 100% 30.03 in 10.0 mi East 4.6 mph - N/A   Overcast
10:35 PM 71.6 °F - 71.6 °F 100% 30.03 in 10.0 mi East 4.6 mph - N/A   Mostly Cloudy
10:55 PM 71.6 °F - 71.6 °F 100% 30.03 in 10.0 mi ENE 4.6 mph - N/A   Mostly Cloudy
11:15 PM 71.6 °F - 71.6 °F 100% 30.04 in 10.0 mi ENE 4.6 mph - N/A   Overcast
11:35 PM 71.6 °F - 71.6 °F 100% 30.05 in 10.0 mi East 4.6 mph - N/A   Mostly Cloudy
11:55 PM 71.6 °F - 71.6 °F 100% 30.05 in 7.0 mi East 4.6 mph - N/A   Scattered Clouds